Regional Weather Roundup
Issued by NWS

Home | Current Version | Previous Version | Text Only | Print | Product List | Glossary On
Versions: 1 2 3 4 5 6 7 8 9 10 11 12 13 14 15 16 17 18 19 20 21 22 23 24 25 26 27 28 29 30 31 32 33 34 35 36 37 38 39 40 41 42 43 44 45 46 47 48 49 50
000
ASUS45 KABQ 070510
RWRNM
WEATHER ROUNDUP FOR NEW MEXICO
NATIONAL WEATHER SERVICE ALBUQUERQUE NM
1000 PM MST FRI MAR 06 2015

NOTE: "FAIR" MEANS FEW OR NO CLOUDS BELOW 12,000 FEET AGL WITH NO
       SIGNIFICANT WEATHER OR OBSTRUCTIONS TO VISION.

      THIS PRODUCT IS RELEASED AS TWO VERSIONS.  ONE VERSION NEAR
      THE TOP OF THE HOUR CONTAINING PRELIMINARY DATA FROM ALBUQUERQUE
      AND OTHER STATIONS.  A FINAL VERSION WITH ADDITIONAL DATA IS
      ISSUED ABOUT 10 MINUTES AFTER THE HOUR.

NMZ501-503-504-510>518-070600-
NORTHWEST PLATEAU/NORTHCENTRAL MOUNTAINS

CITY           SKY/WX    TMP DP  RH WIND       PRES   REMARKS
FARMINGTON     CLEAR     36  24  62 CALM      30.31R
LOS ALAMOS     CLEAR     45  12  26 CALM      30.35R
SANTA FE       CLEAR     28  16  60 N7        30.31R WCI  21
TAOS           PTCLDY    28  19  69 N7        30.35R WCI  21
ANGEL FIRE     FAIR      12   5  72 CALM      30.38S

$$
NMZ402-403-502-505>509-070600-
WESTCENTRAL MOUNTAINS/SOUTHWEST MOUNTAINS

CITY           SKY/WX    TMP DP  RH WIND       PRES   REMARKS
GALLUP         CLEAR     37  17  44 NE6       30.33R WCI  32
GRANTS         CLEAR     28  14  55 W3        30.34S
SILVER CITY    CLEAR     39   7  26 NE8       30.30R WCI  34

$$
NMZ407-409-411-412-070600-
SOUTHERN DESERTS

CITY           SKY/WX    TMP DP  RH WIND       PRES   REMARKS
LORDSBURG      FAIR      41  14  33 S8        30.22R
DEMING         PTCLDY    44  17  33 E8        30.26R
LAS CRUCES     CLEAR     46  14  27 E5        30.28S
ALAMOGORDO     CLEAR     43  16  33 SE3       30.29S
T OR C         CLEAR     41  14  33 W8        30.28R

$$
NMZ519>523-070600-
CENTRAL VALLEYS/CENTRAL HIGHLANDS

CITY           SKY/WX    TMP DP  RH WIND       PRES   REMARKS
ALBUQUERQUE    CLEAR     43  14  31 CALM      30.30R
DOUBLE EAGLE   CLEAR     33  10  38 W6        30.31R WCI  28
MORIARTY ARPT  FAIR      28  14  57 S3        30.33R
CLINES CORNERS CLEAR     35   6  29 W6        30.31S WCI  30
BELEN          FAIR      35  13  39 CALM      30.29S
SOCORRO          N/A     40   9  27 SW7       30.29R WCI  35

$$
NMZ524>526-539-540-070600-
SOUTHCENTRAL MOUNTAINS

CITY           SKY/WX    TMP DP  RH WIND       PRES   REMARKS
RUIDOSO        CLEAR     39  16  38 CALM      30.37R

$$
NMZ527>531-070600-
NORTHEAST HIGHLANDS/NORTHEAST PLAINS

CITY           SKY/WX    TMP DP  RH WIND       PRES   REMARKS
LAS VEGAS      CLEAR     35  22  58 S7        30.31S WCI  29
RATON          CLEAR     34  24  67 N5        30.30R WCI  30
CLAYTON        CLEAR     40  23  50 SW8       30.27S WCI  34

$$
NMZ532>537-070600-
EASTCENTRAL PLAINS

CITY           SKY/WX    TMP DP  RH WIND       PRES   REMARKS
TUCUMCARI      CLEAR     38  22  52 SW9       30.28R WCI  31
CANNON AFB     NOT AVBL
CLOVIS AIRPORT CLEAR     34  21  60 SW8       30.32S WCI  27

$$
NMZ028-029-538-070600-
SOUTHEAST PLAINS

CITY           SKY/WX    TMP DP  RH WIND       PRES   REMARKS
ROSWELL        CLEAR     34  24  67 SW8       30.33R WCI  27
ARTESIA        CLEAR     36  28  75 SW9       30.34S WCI  29
CARLSBAD       CLEAR     36  29  75 S3        30.33R
HOBBS          CLEAR     36  27  69 S6        30.36R WCI  31


$$


USA.gov is the U.S. government's official web portal to all federal, state and local government web resources and services.